Weather History for KPRO - November, 2013

Change the Weather History Date:

Friday, November 8, 2013

  Actual Average Record
Temperature  
Mean Temperature 44 °F -  
Max Temperature 61 °F 49 °F 70 °F (1980)
Min Temperature 26 °F 27 °F -13 °F (1991)
Degree Days  
Heating Degree Days 22    
Moisture  
Dew Point 30 °F    
Average Humidity 62    
Maximum Humidity 85    
Minimum Humidity 31    
Precipitation  
Precipitation 0.00 in - - ()
Sea Level Pressure  
Sea Level Pressure 29.97 in    
Wind  
Wind Speed 11 mph (South)    
Max Wind Speed 31 mph    
Max Gust Speed 37 mph    
Visibility 10 miles    
Events      
Averages and records for this station are not official NWS values.
T = Trace of Precipitation, MM = Missing Value Source: NWS Daily Summary

Daily Weather History Graph

Daily Weather History Graph

Search for Another Location

Airport or City:

Trip Planner

Search our weather history database for the weather conditions in past years. The results will help you decide how hot, cold, wet, or windy it might be!

Date:

Astronomy

Nov. 08, 2013 Rise Set
Actual Time 6:57 AM CST 5:02 PM CST
Civil Twilight 6:28 AM CST 5:31 PM CST
Nautical Twilight 5:55 AM CST 6:05 PM CST
Astronomical Twilight 5:22 AM CST 6:37 PM CST
Moon 11:54 AM CST (11/8) 10:24 PM CST (11/8)
Length of Visible Light 11h 03m
Length of Day
10h 04m
Waxing Crescent, 33% of the Moon is Illuminated
Nov 8
Waxing Crescent
Nov 9
First Quarter
Nov 17
Full
Nov 25
Last Quarter
Dec 2
New

Hourly Weather History & Observations

Time (CST) Temp. Windchill Dew Point Humidity Pressure Visibility Wind Dir Wind Speed Gust Speed Precip Events Conditions
12:15 AM 27.7 °F 21.3 °F 23.2 °F 83% 30.27 in 10.0 mi SW 5.8 mph - N/A   Clear
12:35 AM 28.2 °F 21.0 °F 23.7 °F 83% 30.27 in 10.0 mi SW 6.9 mph - N/A   Clear
12:55 AM 28.8 °F 22.6 °F 23.5 °F 81% 30.26 in 10.0 mi SW 5.8 mph - N/A   Clear
1:15 AM 30.7 °F 24.1 °F 23.7 °F 75% 30.25 in 10.0 mi SW 6.9 mph - N/A   Clear
1:35 AM 30.4 °F 26.9 °F 23.7 °F 76% 30.25 in 10.0 mi SW 3.5 mph - N/A   Clear
1:55 AM 28.9 °F 23.9 °F 23.2 °F 79% 30.25 in 10.0 mi South 4.6 mph - N/A   Clear
2:15 AM 26.8 °F 21.4 °F 22.8 °F 85% 30.25 in 10.0 mi South 4.6 mph - N/A   Clear
2:35 AM 26.6 °F 20.0 °F 22.6 °F 85% 30.24 in 10.0 mi South 5.8 mph - N/A   Clear
2:55 AM 27.1 °F 20.7 °F 22.8 °F 84% 30.24 in 10.0 mi SSE 5.8 mph - N/A   Clear
3:15 AM 27.3 °F 22.0 °F 22.5 °F 82% 30.23 in 10.0 mi South 4.6 mph - N/A   Clear
3:35 AM 26.8 °F 19.3 °F 22.8 °F 85% 30.23 in 10.0 mi South 6.9 mph - N/A   Clear
3:55 AM 27.3 °F 20.9 °F 22.6 °F 83% 30.22 in 10.0 mi South 5.8 mph - N/A   Clear
4:15 AM 27.9 °F 19.8 °F 23.0 °F 82% 30.21 in 10.0 mi SSE 8.1 mph - N/A   Clear
4:35 AM 27.5 °F 19.3 °F 22.6 °F 82% 30.21 in 10.0 mi SSE 8.1 mph - N/A   Clear
4:55 AM 27.5 °F 19.3 °F 23.4 °F 84% 30.20 in 10.0 mi SSE 8.1 mph - N/A   Clear
5:15 AM 27.3 °F 19.9 °F 23.0 °F 84% 30.20 in 10.0 mi SSE 6.9 mph - N/A   Clear
5:35 AM 29.1 °F 21.3 °F 23.9 °F 81% 30.19 in 10.0 mi SSE 8.1 mph - N/A   Clear
5:55 AM 29.1 °F 20.6 °F 24.3 °F 82% 30.18 in 10.0 mi SSE 9.2 mph - N/A   Clear
6:15 AM 29.1 °F 22.1 °F 23.9 °F 81% 30.18 in 10.0 mi SSE 6.9 mph - N/A   Clear
6:35 AM 30.2 °F 22.6 °F 24.6 °F 80% 30.16 in 10.0 mi SSE 8.1 mph - N/A   Clear
6:55 AM 30.9 °F 23.5 °F 25.7 °F 81% 30.16 in 10.0 mi SSE 8.1 mph - N/A   Clear
7:15 AM 31.3 °F 23.3 °F 25.7 °F 80% 30.16 in 10.0 mi SSE 9.2 mph - N/A   Clear
7:35 AM 32.0 °F 23.6 °F 26.2 °F 79% 30.15 in 10.0 mi SSE 10.4 mph - N/A   Clear
7:55 AM 32.0 °F 23.6 °F 27.0 °F 82% 30.14 in 10.0 mi SSE 10.4 mph - N/A   Clear
8:15 AM 33.1 °F 24.9 °F 27.5 °F 80% 30.13 in 10.0 mi SSE 10.4 mph - N/A   Clear
8:35 AM 34.2 °F 25.7 °F 27.5 °F 77% 30.11 in 10.0 mi SSE 11.5 mph - N/A   Clear
8:55 AM 35.1 °F 26.9 °F 27.9 °F 75% 30.10 in 10.0 mi SSE 11.5 mph - N/A   Clear
9:15 AM 35.8 °F 26.5 °F 28.0 °F 73% 30.09 in 10.0 mi SSE 15.0 mph - N/A   Clear
9:35 AM 36.5 °F 27.4 °F 28.6 °F 73% 30.07 in 10.0 mi SSE 15.0 mph - N/A   Clear
9:55 AM 37.6 °F 28.4 °F 29.1 °F 72% 30.05 in 10.0 mi SSE 16.1 mph - N/A   Clear
10:15 AM 39.2 °F 30.5 °F 28.8 °F 66% 30.04 in 10.0 mi SE 16.1 mph - N/A   Clear
10:35 AM 41.0 °F 32.5 °F 28.8 °F 62% 30.02 in 10.0 mi SE 17.3 mph - N/A   Clear
10:55 AM 42.6 °F 34.9 °F 30.0 °F 61% 30.00 in 10.0 mi SSE 16.1 mph - N/A   Clear
11:15 AM 45.9 °F 38.5 °F 31.1 °F 56% 29.98 in 10.0 mi SSE 18.4 mph 25.3 mph N/A   Clear
11:35 AM 47.8 °F - 31.1 °F 52% 29.95 in 10.0 mi SSE 23.0 mph 27.6 mph N/A   Clear
11:55 AM 49.5 °F - 31.8 °F 51% 29.92 in 10.0 mi SSE 24.2 mph 33.4 mph N/A   Clear
12:15 PM 52.0 °F - 32.2 °F 47% 29.89 in 10.0 mi SSE 26.5 mph 32.2 mph N/A   Clear
12:35 PM 54.1 °F - 32.5 °F 44% 29.86 in 10.0 mi SSE 25.3 mph 34.5 mph N/A   Clear
12:55 PM 54.9 °F - 32.9 °F 43% 29.83 in 10.0 mi SSE 26.5 mph 32.2 mph N/A   Clear
1:15 PM 57.2 °F - 31.6 °F 38% 29.82 in 10.0 mi South 26.5 mph 36.8 mph N/A   Clear
1:35 PM 58.1 °F - 31.6 °F 37% 29.81 in 10.0 mi South 28.8 mph 35.7 mph N/A   Clear
1:55 PM 58.5 °F - 31.3 °F 36% 29.80 in 10.0 mi South 28.8 mph 36.8 mph N/A   Clear
2:15 PM 57.9 °F - 32.4 °F 38% 29.79 in 10.0 mi South 24.2 mph 34.5 mph N/A   Clear
2:35 PM 58.5 °F - 33.3 °F 39% 29.77 in 10.0 mi South 23.0 mph 29.9 mph N/A   Clear
2:55 PM 60.8 °F - 30.6 °F 32% 29.77 in 10.0 mi South 31.1 mph 36.8 mph N/A   Clear
3:15 PM 61.0 °F - 31.1 °F 32% 29.76 in 10.0 mi South 23.0 mph 34.5 mph N/A   Clear
3:35 PM 61.5 °F - 30.7 °F 31% 29.77 in 10.0 mi South 20.7 mph 28.8 mph N/A   Clear
3:55 PM 60.8 °F - 30.4 °F 32% 29.77 in 10.0 mi SSW 18.4 mph 25.3 mph N/A   Clear
4:15 PM 59.0 °F - 32.0 °F 36% 29.77 in 10.0 mi South 18.4 mph - N/A   Clear
4:35 PM 57.2 °F - 33.6 °F 41% 29.76 in 10.0 mi South 15.0 mph - N/A   Clear
4:55 PM 55.6 °F - 34.7 °F 45% 29.76 in 10.0 mi South 13.8 mph - N/A   Clear
5:15 PM 56.3 °F - 33.1 °F 41% 29.76 in 10.0 mi South 15.0 mph - N/A   Clear
5:35 PM 55.4 °F - 33.4 °F 43% 29.75 in 10.0 mi South 13.8 mph - N/A   Clear
5:55 PM 54.0 °F - 33.8 °F 46% 29.74 in 10.0 mi South 15.0 mph - N/A   Clear
6:15 PM 53.2 °F - 33.8 °F 48% 29.75 in 10.0 mi South 10.4 mph - N/A   Clear
6:35 PM 54.5 °F - 33.1 °F 44% 29.76 in 10.0 mi South 12.7 mph 17.3 mph N/A   Clear
6:55 PM 54.9 °F - 33.3 °F 44% 29.77 in 10.0 mi SSW 11.5 mph - N/A   Clear
7:15 PM 54.9 °F - 33.8 °F 45% 29.77 in 10.0 mi SSW 9.2 mph - N/A   Scattered Clouds
7:35 PM 54.1 °F - 34.2 °F 47% 29.77 in 10.0 mi SSW 8.1 mph - N/A   Scattered Clouds
7:55 PM 53.6 °F - 34.7 °F 49% 29.77 in 10.0 mi SSW 8.1 mph - N/A   Scattered Clouds
8:15 PM 53.1 °F - 34.7 °F 50% 29.79 in 10.0 mi SW 9.2 mph - N/A   Clear
8:35 PM 51.3 °F - 35.1 °F 54% 29.79 in 10.0 mi SW 9.2 mph - N/A   Clear
8:55 PM 50.9 °F - 35.4 °F 55% 29.80 in 10.0 mi WSW 10.4 mph - N/A   Clear
9:15 PM 54.0 °F - 34.5 °F 48% 29.80 in 10.0 mi WSW 12.7 mph 19.6 mph N/A   Clear
9:35 PM 53.1 °F - 34.9 °F 50% 29.81 in 10.0 mi West 11.5 mph - N/A   Clear
9:55 PM 50.9 °F - 35.2 °F 55% 29.81 in 10.0 mi West 11.5 mph - N/A   Clear
10:15 PM 48.7 °F - 35.2 °F 60% 29.82 in 10.0 mi West 9.2 mph - N/A   Clear
10:35 PM 46.4 °F 41.9 °F 35.4 °F 66% 29.82 in 10.0 mi WSW 9.2 mph - N/A   Clear
10:55 PM 45.3 °F 40.1 °F 35.4 °F 68% 29.83 in 10.0 mi WSW 10.4 mph - N/A   Clear
11:15 PM 45.9 °F 40.4 °F 35.8 °F 68% 29.83 in 10.0 mi West 11.5 mph - N/A   Clear
11:35 PM 48.4 °F - 36.0 °F 62% 29.84 in 10.0 mi West 17.3 mph - N/A   Clear
11:55 PM 48.9 °F - 35.2 °F 59% 29.85 in 10.0 mi West 16.1 mph - N/A   Clear